Weather in Little Rock

United States     34°43′51″N   92°18′03″W
temp.,
°C
wind,
m/s
gust,
m/s
humid.,
%
clouds,
%
prec.,
mm/h
press.,
hPa
HPBL,
m
6 may, thu
thu601:00+13n00730 0.0 102110
04:00+14w227196 0.0 102160
07:00+13w11770 0.0 102238
10:00+20wnw24525 0.0 1023639
13:00+24nw47420 0.0 10211856
16:00+25wnw611375 0.0 10193129
19:00+22nw49530 0.0 1019906
22:00+15n412600 0.0 1023477
7 may, fri
fri701:00+11nne310770 0.0 1024365
04:00+9n23760 0.0 102496
07:00+9nnw11750 0.0 102454
10:00+17sw11485 0.0 1025629
13:00+21sse223669 0.0 10221167
16:00+18s355483 0.0 1020396
19:00+19se35586 0.0 1018225
22:00+15sse276455 0.0 1019173
8 may, sat
sat801:00+13ssw277531 0.0 1018149
04:00+13ssw31371100 0.0 1017303
07:00+14s31369100 0.0 1017396
10:00+19ssw4962100 0.0 1016632
13:00+26ssw594075 0.0 10141671
16:00+28ssw69389 0.0 10112061
19:00+24s41056100 0.0 1010561
22:00+20sse41372100 0.0 1010480
9 may, sun
sun901:00+21s6146969 0.0 1010964
04:00+20s61579100 0.0 10091032
07:00+19s61585100 0.0 10081058
10:00+19ssw61593100 1.5 10091142
13:00+21ssw6159368 6.8 10081065
16:00+22ssw4128998 1.1 1007766
19:00+24sw511855 4.6 1007457
22:00+20ssw5129699 3.7 1007361
10 may, mon
mon1001:00+17wsw1298100 7.6 100997
04:00+16nne5993100 2.7 1011470
07:00+13nne499199 2.8 1014445
10:00+15ne457287 0.0 1015556
13:00+20ene346283 0.4 1015899
16:00+20ene456599 0.1 1015892
19:00+18ene4973100 0.1 1015663
22:00+15ne61170100 0.0 1018695